Theta_e
300 301 301 301 300 299 301 305 307 307 307 311 307 304 307 308 303 299 313 316 315 316 317 320 320 321 322 322 324 326 328 329 330 331 330 329 329 331 332 334 337 336 337 338 341 342 343 344 344 345 346 346 347 347 349 350 351 350 353 353 352 350 350 349 350 351 354 358 360 361 362 361 361 360 358 358 358 358 359 357 356 357 357 356 356 357 358
300 298 299 301 301 299 301 304 306 309 308 310 311 310 312 310 311 310 313 317 317 318 319 321 321 323 323 324 325 326 326 327 329 329 328 328 328 329 330 332 333 334 334 335 336 337 339 340 342 343 344 344 345 346 348 349 350 351 353 353 350 349 348 349 350 349 349 352 354 357 358 359 361 360 358 357 355 355 356 357 358 359 359 358 356 355 355
298 298 301 302 301 301 300 304 306 308 309 310 311 311 311 312 313 313 315 315 314 321 324 322 323 323 323 323 322 324 325 326 328 328 326 326 326 327 328 329 330 331 332 332 333 334 335 336 337 337 338 339 341 343 344 347 349 351 351 348 349 348 347 350 350 350 349 347 350 352 354 354 354 355 355 355 355 356 356 355 355 357 356 356 355 355 354
296 298 298 300 302 302 301 302 305 307 308 306 308 308 310 309 310 312 314 312 312 319 323 322 322 321 321 320 321 322 324 326 327 326 325 324 325 325 326 327 328 328 328 329 329 329 330 331 333 335 336 339 340 340 342 343 346 349 348 346 347 348 349 350 351 349 349 348 348 350 352 351 349 350 351 353 354 355 354 353 355 354 353 354 356 355 354
295 298 299 299 300 299 296 299 305 309 310 309 309 311 312 311 311 311 309 311 318 320 322 319 319 319 319 320 321 321 323 326 326 324 323 323 324 324 325 325 325 325 325 325 325 324 324 325 326 327 329 330 332 335 337 339 342 343 343 343 343 345 349 349 350 349 349 348 348 349 350 347 342 343 347 351 353 354 353 354 353 353 355 355 355 354 354
295 297 299 300 297 290 293 306 309 312 309 310 308 308 309 312 313 312 315 317 319 319 319 317 316 317 318 319 320 324 323 324 323 322 323 323 323 324 325 324 323 323 323 322 323 323 323 324 324 326 327 326 327 329 331 333 335 336 337 337 337 337 339 342 346 348 349 349 348 347 348 347 344 343 345 349 354 356 356 357 355 353 352 353 355 357 357
295 298 298 295 288 291 302 307 311 314 313 313 311 310 311 312 315 315 316 318 318 319 320 319 318 315 314 316 317 319 321 322 321 320 321 322 323 322 322 322 322 322 323 323 323 323 323 324 324 323 324 326 327 327 328 329 330 331 332 332 333 334 335 337 339 340 339 340 343 345 347 348 347 346 347 350 351 351 351 351 351 353 352 352 353 355 355
297 296 295 286 289 298 301 302 304 311 309 305 306 309 312 313 314 316 317 317 318 317 315 315 314 312 311 310 311 313 316 319 320 319 319 323 324 322 321 321 322 322 322 322 323 323 323 322 322 323 324 326 326 326 328 327 328 328 329 330 330 331 331 333 335 337 339 339 339 340 341 345 345 343 345 349 349 351 351 353 353 354 354 354 354 355 357
292 295 295 294 299 297 299 299 300 300 302 302 306 301 309 313 315 318 316 314 313 312 312 311 311 312 311 308 308 311 315 317 320 322 322 320 320 321 321 321 320 321 321 322 323 325 324 323 323 323 324 327 327 327 327 327 328 327 328 327 328 329 330 332 333 333 335 336 337 338 339 337 336 338 339 341 346 350 350 352 353 354 354 354 356 355 355
296 293 292 293 292 290 295 299 304 306 305 304 307 311 308 313 316 319 315 312 312 310 311 311 312 313 310 306 306 309 313 317 317 318 319 319 319 320 321 322 322 322 321 321 322 322 322 323 323 324 325 325 325 324 324 325 325 325 325 326 326 327 328 330 332 334 334 334 334 335 336 337 338 339 340 341 341 345 346 348 350 350 351 352 352 353 354
295 293 290 290 288 292 298 301 304 306 306 306 306 305 300 312 316 319 317 313 312 311 310 310 312 310 306 305 307 310 312 315 316 316 317 318 318 320 321 321 320 320 320 320 320 321 321 320 322 323 324 324 322 321 323 322 324 324 324 325 326 325 326 328 330 332 333 333 333 334 335 336 337 338 340 340 342 343 344 345 345 349 348 349 350 351 351
295 293 290 289 294 294 301 304 306 307 308 306 306 293 295 312 316 318 317 314 314 315 316 314 313 310 306 305 307 311 313 315 316 316 315 315 315 317 318 319 319 320 322 321 319 318 318 319 321 322 321 321 322 320 320 321 320 322 324 325 327 328 328 328 328 329 330 331 332 333 334 335 336 337 339 340 340 341 342 344 344 346 346 345 346 348 349
293 295 293 295 297 303 306 306 308 308 309 304 296 291 300 313 317 319 318 316 316 316 316 316 313 315 314 312 313 315 316 316 316 317 317 316 316 316 317 318 321 319 319 318 318 318 320 320 320 321 321 321 320 321 320 320 319 321 324 327 327 327 328 327 327 328 327 328 329 330 331 333 335 335 337 340 340 341 342 345 345 344 342 343 345 347 348
291 292 291 292 295 300 304 309 309 310 303 296 296 305 309 311 316 319 319 317 318 317 316 318 318 317 315 315 314 314 315 317 316 316 317 317 317 318 320 320 319 318 318 319 319 319 321 320 321 321 322 321 321 321 320 319 320 322 324 326 326 327 327 327 327 327 327 328 327 328 330 332 332 332 335 336 337 339 342 342 342 342 342 343 345 345 346
293 293 291 290 286 301 307 307 307 310 301 301 307 308 310 314 317 316 318 318 318 319 317 318 317 314 313 313 313 314 316 315 315 316 316 317 317 316 316 316 318 317 317 317 317 318 319 320 321 320 321 321 320 320 319 321 321 323 323 325 326 326 326 325 326 326 326 326 326 328 329 330 330 331 333 334 335 336 337 338 339 339 341 343 343 343 342
291 289 288 288 300 306 308 307 302 306 308 309 309 309 307 316 318 317 317 316 317 318 317 315 313 312 312 313 314 314 314 314 315 315 316 317 316 315 315 316 317 318 317 316 316 317 318 320 321 321 321 320 320 319 319 323 322 322 323 324 325 324 324 324 323 324 324 325 325 326 328 329 330 330 330 332 331 332 335 336 335 335 335 337 338 338 337
297 296 298 304 306 307 308 307 308 308 309 310 310 309 309 314 317 319 318 317 317 318 317 315 313 311 312 313 313 312 313 314 314 314 314 315 315 317 315 316 317 317 316 315 315 316 317 318 320 321 321 319 318 318 321 324 323 322 322 322 321 321 323 323 323 323 322 323 324 324 325 327 326 326 328 330 328 330 331 331 332 332 333 334 334 335 336
304 304 304 306 307 308 309 310 309 308 309 309 310 310 310 312 317 319 318 317 317 318 317 314 313 313 314 314 312 312 313 314 314 315 315 315 315 315 315 315 315 316 316 315 315 315 316 317 318 320 319 319 318 319 321 322 322 321 322 321 321 322 322 322 322 323 321 320 320 322 323 323 324 324 324 325 327 327 327 327 328 329 330 331 332 332 333
297 293 305 306 306 307 308 309 311 312 311 309 310 311 311 311 314 319 319 317 318 318 317 314 314 314 314 315 314 315 313 313 313 313 314 315 315 314 312 313 314 313 314 315 315 316 316 318 318 318 318 318 321 322 322 320 321 322 322 321 321 321 321 321 321 322 322 319 319 319 321 320 322 323 323 323 323 324 324 324 325 326 326 328 329 330 331
298 299 304 306 307 308 309 309 310 309 310 311 311 311 312 313 314 316 316 316 316 318 318 316 314 314 314 314 313 313 313 313 313 313 313 314 314 316 316 314 314 314 313 314 315 315 316 318 319 318 318 318 319 321 320 321 321 322 322 321 319 320 320 321 320 320 320 321 320 319 320 320 319 320 320 321 320 320 320 320 320 321 323 324 324 325 327
303 304 305 306 307 307 309 310 311 312 312 313 311 311 311 313 313 314 315 317 316 316 316 315 313 313 313 313 313 311 312 313 313 313 313 314 314 315 316 316 315 313 313 313 313 314 314 317 318 319 319 319 320 321 322 322 322 321 320 321 321 320 320 319 319 321 320 320 320 319 319 321 320 321 319 319 320 321 321 321 320 319 321 321 323 323 325
299 300 304 306 301 303 306 308 310 312 312 315 313 312 310 311 312 314 314 315 316 316 317 316 315 313 311 313 314 313 312 312 312 312 312 313 313 313 314 315 316 316 315 314 314 313 313 314 315 315 316 317 318 318 320 321 321 319 319 319 318 318 318 318 318 318 319 318 319 319 317 318 319 320 319 312 315 320 321 319 312 305 305 320 320 321 324
299 305 306 309 308 308 308 309 311 313 314 314 313 313 311 310 311 313 313 313 314 315 317 316 316 314 312 312 313 312 311 311 312 312 312 313 313 313 313 314 316 316 316 316 316 315 315 316 315 314 314 314 315 316 317 317 317 317 318 317 316 315 317 317 317 317 317 317 319 319 319 318 319 319 319 324 302 304 311 315 308 300 299 300 301 306 317
308 309 310 309 310 308 309 311 312 312 315 314 312 314 315 313 312 311 311 311 312 312 314 315 316 316 316 315 314 312 312 313 313 312 313 313 313 313 314 316 316 316 316 316 316 316 316 316 315 315 313 314 314 313 314 314 315 315 315 315 314 314 315 315 316 318 316 317 317 317 318 318 319 318 319 319 321 309 306 309 307 303 300 301 301 301 302
308 312 312 312 311 311 312 312 313 313 315 315 313 313 314 315 316 315 314 313 312 312 313 313 313 314 316 316 315 314 313 313 313 312 312 311 311 313 315 316 316 316 316 317 317 317 317 316 315 315 313 313 314 313 314 313 313 313 314 314 313 314 314 314 314 315 314 315 315 315 315 316 316 317 316 316 316 318 323 308 307 307 306 303 302 302 303
311 312 312 312 312 312 313 312 312 312 313 315 314 314 315 315 316 317 315 315 315 313 312 312 313 313 313 315 315 315 315 313 313 313 311 310 310 312 313 315 316 317 318 318 317 317 316 315 314 314 313 312 314 314 313 313 314 313 313 313 314 313 313 313 312 313 313 314 314 314 315 315 315 315 316 316 316 317 317 319 320 315 305 304 303 305 305
311 312 311 309 309 309 311 310 309 312 313 314 314 314 314 315 316 315 315 315 315 315 314 313 313 314 314 315 314 314 313 313 313 312 311 311 311 312 314 316 317 317 317 317 317 317 316 315 315 314 313 312 313 313 313 313 313 313 312 312 311 310 310 311 312 312 312 313 313 313 313 314 313 314 315 316 318 317 317 315 315 316 319 321 312 306 314
312 311 312 307 306 308 310 311 311 311 311 311 312 312 313 315 315 314 314 316 316 316 315 314 313 313 313 313 313 312 312 312 312 312 311 311 313 314 316 316 316 317 316 317 316 317 316 315 313 312 311 313 314 313 311 312 312 312 311 311 310 310 310 310 311 312 311 311 311 312 312 312 313 313 314 315 316 317 316 316 315 316 316 318 319 315 310
310 311 312 312 312 312 312 311 311 310 310 310 311 311 311 311 310 311 311 313 314 315 315 315 314 313 312 313 313 312 312 312 312 313 312 313 314 314 315 316 316 316 316 316 316 315 315 313 312 311 311 312 313 312 312 312 311 311 310 309 309 309 310 310 311 311 311 310 311 312 310 311 312 312 313 315 316 315 314 313 313 315 316 317 318 320 318
310 310 311 310 310 310 309 307 307 307 307 309 309 308 309 308 308 309 310 311 312 312 314 315 315 315 314 312 312 313 312 311 312 313 312 312 313 314 314 315 315 316 316 314 314 314 313 312 311 310 309 311 311 312 311 311 310 311 310 310 309 309 309 311 311 310 310 310 309 309 311 311 312 313 312 313 313 312 311 311 312 313 313 314 314 316 316
309 309 310 310 309 308 307 306 307 307 307 309 309 308 308 309 309 309 310 311 311 311 314 314 314 315 314 314 314 313 314 314 313 314 313 312 313 313 314 315 312 312 313 313 314 313 313 312 311 310 311 311 310 310 310 309 309 308 309 308 308 306 306 306 306 308 307 308 309 309 309 310 311 310 310 309 309 308 309 310 311 311 312 312 313 313 314
308 307 307 308 308 307 306 307 306 306 306 308 307 305 306 307 306 307 309 310 311 311 312 313 313 314 315 315 315 315 314 314 315 315 313 311 311 313 314 315 315 315 316 315 313 313 313 312 310 310 311 310 310 310 309 308 308 307 307 306 307 307 306 304 306 306 306 307 307 307 308 308 308 309 308 308 307 308 309 310 309 310 310 310 311 312 314
307 304 303 305 305 305 304 306 306 305 307 307 308 308 309 309 309 309 310 311 310 312 312 313 314 315 315 315 314 313 313 313 313 312 311 310 311 313 314 316 317 316 315 314 314 313 312 311 310 310 310 310 309 309 308 308 307 306 306 306 306 306 305 304 303 304 306 306 306 306 306 306 307 307 306 307 308 309 309 309 309 308 309 309 310 311 312
307 306 306 306 306 305 305 306 308 307 309 309 309 310 310 310 310 310 310 311 310 311 312 313 314 314 313 313 313 312 312 310 309 308 309 310 311 312 313 313 313 313 312 313 312 312 312 310 309 308 308 308 308 308 307 307 307 306 307 306 305 305 305 304 304 305 305 305 305 306 306 307 307 307 307 308 308 309 308 308 307 307 307 307 308 310 307
311 310 310 309 309 309 309 308 308 308 308 307 309 310 311 311 311 311 312 311 311 312 313 313 313 313 313 312 311 311 311 310 310 311 311 310 310 310 310 309 308 308 308 309 310 310 310 309 308 308 307 307 307 307 307 307 306 306 306 305 305 305 304 304 304 304 304 305 306 305 306 307 308 308 308 308 307 307 306 306 306 306 306 307 307 309 310
309 309 309 309 310 309 309 309 309 309 309 309 309 309 309 310 310 311 311 311 313 313 313 313 313 312 311 311 310 310 310 311 312 312 310 309 309 309 309 308 307 306 306 306 308 308 308 308 307 306 307 306 305 305 307 306 305 305 305 304 304 304 303 303 304 304 305 305 305 305 305 305 305 306 305 305 305 305 304 304 304 305 305 306 307 307 307
307 307 307 307 307 307 307 308 308 308 308 308 308 309 309 310 310 311 312 312 313 313 313 312 311 310 310 311 311 311 311 311 311 310 309 309 309 309 309 307 306 305 304 302 304 307 307 307 306 305 305 305 304 304 307 304 304 304 304 303 302 303 302 303 303 303 303 304 304 304 304 304 303 302 303 303 303 303 303 303 303 304 304 304 304 304 305
306 306 306 306 307 306 307 307 308 308 307 307 308 309 309 310 311 311 312 312 312 313 312 311 311 311 311 310 310 309 310 310 310 309 309 308 309 309 308 306 305 305 303 302 305 306 306 305 304 304 304 303 304 303 304 301 300 300 301 301 301 301 302 302 301 301 301 302 303 302 302 301 300 300 301 301 301 302 302 302 302 302 302 301 302 303 304
305 306 306 306 306 306 306 306 307 307 307 306 307 308 309 310 311 312 312 312 313 312 311 310 310 309 308 307 307 307 307 308 308 308 308 308 308 307 306 306 306 306 304 305 305 304 304 304 304 304 303 303 303 302 301 299 299 300 300 301 301 301 301 300 300 300 300 301 300 300 299 298 299 299 299 299 300 300 301 300 300 300 299 300 300 301 302
305 305 305 305 304 305 305 305 306 306 307 307 307 306 308 309 309 310 311 311 311 311 311 310 309 307 307 307 306 306 307 307 307 307 306 306 306 303 302 302 304 305 305 304 304 303 303 302 302 302 302 302 301 301 300 299 298 299 300 299 299 299 299 299 299 298 298 298 297 297 297 297 297 297 298 299 298 298 297 297 297 297 298 299 300 300 301
303 303 303 303 303 304 304 304 304 306 307 307 307 308 308 308 309 309 310 310 311 311 310 309 309 308 307 307 306 306 306 306 306 305 304 303 302 301 299 298 301 303 303 303 303 302 302 301 301 301 302 302 301 300 300 298 298 299 298 298 298 298 297 297 297 296 296 295 296 295 295 296 296 296 297 296 296 296 296 296 296 297 297 298 298 299 298
302 302 302 302 302 303 304 305 305 304 306 307 308 308 309 309 309 309 311 311 310 309 309 309 309 309 307 307 306 305 304 304 304 304 304 302 301 300 298 298 302 302 303 303 303 302 302 301 301 301 301 301 301 299 298 299 298 298 297 297 297 297 297 296 296 295 296 295 295 295 296 296 295 294 295 295 294 295 295 295 295 296 296 297 297 297 297
302 301 301 301 301 302 303 304 304 305 306 307 308 308 309 310 309 309 309 309 309 308 307 307 307 306 307 306 305 303 302 302 302 302 301 302 304 304 301 299 302 304 303 303 301 300 300 300 301 301 301 300 300 298 298 298 298 298 297 297 297 296 296 296 295 295 295 295 294 294 294 294 293 293 293 293 293 293 294 294 294 294 296 296 296 296 296
302 301 301 301 301 302 303 303 304 304 304 305 307 308 308 308 308 308 308 308 307 307 306 305 305 304 304 303 302 300 300 300 299 299 298 298 299 302 303 302 303 304 302 303 301 301 301 301 300 300 300 300 298 297 298 298 298 297 297 296 296 296 296 295 295 294 294 294 295 294 294 294 294 293 292 292 293 293 293 293 293 294 295 295 295 295 295
302 302 302 302 302 302 302 303 303 304 305 306 306 306 307 307 307 308 308 308 307 306 306 305 304 304 303 303 302 302 301 301 300 299 298 297 297 298 303 304 303 303 302 301 301 301 301 301 300 299 300 299 298 297 298 298 297 297 297 297 296 296 295 295 295 294 295 295 295 294 294 293 293 293 293 293 293 293 293 293 293 293 293 293 293 294 294
302 302 302 302 302 302 303 303 304 304 304 304 304 305 305 305 305 306 306 306 306 305 304 304 303 303 303 302 301 301 301 301 303 304 305 302 300 301 304 303 304 303 301 301 301 300 301 300 299 299 299 299 298 298 298 297 297 297 297 296 296 296 295 295 295 295 294 294 295 294 293 293 293 293 293 293 293 293 293 294 294 293 293 293 293 293 293
302 302 302 302 303 303 304 304 304 304 304 303 303 303 303 304 305 304 304 304 304 303 302 301 301 302 302 302 301 300 300 300 301 304 305 305 305 304 304 303 303 302 301 301 301 301 301 301 300 299 299 298 296 298 298 297 297 297 296 296 296 295 295 295 295 295 294 294 294 294 294 294 293 293 294 293 293 293 294 293 292 293 293 293 293 293 293
302 302 302 303 303 304 304 304 304 303 302 303 302 302 302 303 302 302 302 303 303 302 301 302 302 302 303 303 304 305 304 302 298 300 304 303 303 304 304 304 303 303 302 301 300 300 300 300 299 299 298 298 298 298 298 297 297 297 296 296 296 296 295 295 295 295 294 294 294 294 294 293 293 294 294 293 293 293 293 293 293 293 293 293 293 293 293
303 303 304 304 304 304 303 303 303 303 302 303 302 302 302 303 302 301 301 302 301 300 300 300 301 301 303 304 305 305 305 304 302 298 303 304 303 303 303 304 303 303 302 301 301 301 301 300 299 298 298 297 299 299 298 298 297 297 297 296 296 296 296 296 295 295 294 294 294 294 294 294 294 294 294 294 293 293 294 293 293 293 293 293 293 293 293
304 304 303 303 303 303 303 303 302 302 303 302 301 302 303 302 300 299 300 300 299 300 300 300 301 302 302 303 304 304 305 304 305 305 305 304 304 304 303 304 304 303 302 301 301 301 301 300 300 299 299 299 299 299 299 299 298 297 297 296 296 296 296 295 294 294 295 296 295 295 295 294 294 294 295 294 294 294 293 294 294 293 293 293 294 293 293
304 303 303 303 304 304 304 304 304 304 303 303 302 303 303 301 300 300 300 300 301 300 300 300 301 301 302 302 302 302 303 304 304 305 304 304 304 303 303 304 304 303 303 301 301 300 301 301 301 300 300 300 299 300 300 299 298 298 297 297 297 296 296 296 296 295 295 296 296 295 295 295 295 295 294 294 294 294 294 294 294 294 294 293 293 293 293
304 304 304 304 304 304 304 305 305 305 304 303 303 303 302 302 301 300 300 301 301 300 300 299 298 300 302 302 301 301 302 303 304 304 304 304 304 304 304 304 304 303 302 301 301 301 301 301 301 300 300 300 300 300 299 299 299 298 298 298 297 297 297 297 296 296 296 296 296 295 295 295 295 295 294 294 294 293 293 293 294 294 294 294 293 293 293
Wind_Speed
5 4 5 2 1 4 5 7 10 14 9 8 4 4 5 7 6 5 8 12 10 11 15 13 10 8 9 9 9 8 8 8 8 9 9 9 9 9 8 7 6 7 6 6 6 6 6 7 9 10 8 6 4 5 6 6 6 6 6 7 6 5 3 3 4 5 6 5 5 5 5 5 6 6 6 6 5 6 6 7 7 8 8 8 7 7 7
1 2 1 2 1 2 2 10 12 13 9 8 7 5 7 5 7 6 5 9 4 7 13 13 10 8 9 8 8 8 9 9 9 9 9 9 9 10 10 10 10 10 10 10 10 9 8 8 8 8 7 7 6 6 6 8 9 9 9 9 9 9 9 8 7 6 4 3 4 4 5 5 4 4 4 4 5 6 6 6 6 5 5 6 7 7 7
3 3 4 2 2 4 5 7 11 12 8 6 7 6 7 9 3 2 8 9 8 6 11 13 11 9 9 9 9 9 9 8 9 9 10 10 10 11 11 12 12 12 12 12 12 12 11 11 12 10 9 9 8 6 4 3 5 6 6 7 8 9 8 8 9 8 5 4 4 4 4 3 3 3 3 3 3 4 4 4 5 4 6 7 8 7 8
5 0 4 4 5 5 7 4 9 10 11 9 7 6 6 5 4 2 7 8 8 10 13 13 12 11 12 11 10 9 8 8 9 9 10 11 12 12 13 13 13 13 12 11 10 11 11 10 9 9 9 8 8 8 6 4 3 4 7 8 9 9 8 8 9 9 7 6 5 6 6 6 5 4 4 3 4 4 5 5 4 5 6 6 6 6 6
2 0 2 4 2 6 8 4 4 6 6 1 2 2 6 4 6 4 2 1 5 12 13 14 13 12 11 10 9 9 9 9 9 10 11 12 13 13 13 14 12 12 12 11 11 10 9 9 9 9 8 10 11 11 11 10 9 9 8 6 4 1 5 9 9 8 8 8 6 6 7 7 6 7 6 7 7 7 7 6 5 5 5 6 6 6 6
2 2 3 1 3 1 4 5 3 4 7 5 5 3 3 3 4 2 5 1 9 12 13 14 13 12 10 8 6 7 9 10 11 11 12 13 13 13 13 12 11 9 10 10 10 10 10 10 10 8 10 9 9 9 9 9 10 11 10 10 11 10 11 8 2 4 7 9 9 7 7 6 5 6 7 6 6 5 5 6 6 6 7 7 6 5 5
2 1 2 4 7 6 4 2 0 5 10 9 8 5 2 4 2 2 5 8 10 12 13 14 12 10 9 8 7 6 7 9 10 11 11 11 12 12 12 12 12 10 9 11 11 10 10 9 7 9 9 8 8 10 10 10 9 9 9 9 9 10 12 10 10 9 7 5 3 6 8 7 6 5 6 7 7 6 6 7 7 6 5 5 6 7 8
2 2 4 3 3 3 3 1 1 2 1 4 3 4 5 4 2 3 6 11 10 9 11 10 11 12 11 10 10 7 6 5 8 9 9 12 13 12 9 12 11 10 9 9 9 9 9 9 8 9 9 9 12 12 10 10 10 9 9 9 9 9 8 8 9 9 8 8 7 6 5 6 6 4 2 5 7 5 6 6 5 4 4 5 6 6 5
2 1 4 1 2 1 2 1 3 5 3 3 3 4 2 2 1 4 10 11 10 11 12 12 12 12 11 9 7 8 6 7 9 8 7 10 12 12 12 12 11 10 9 10 9 9 9 9 8 8 7 9 11 11 10 9 9 9 9 10 9 8 8 8 8 7 7 6 6 6 5 5 5 4 3 3 3 4 5 5 5 4 3 3 2 4 4
1 1 3 2 4 5 3 1 3 4 5 6 4 2 2 0 2 9 13 11 11 12 12 13 13 13 11 7 4 5 6 6 10 11 11 11 11 11 12 12 11 10 10 9 7 9 10 10 9 7 7 8 9 10 10 9 10 10 9 9 8 7 7 7 6 6 6 5 5 4 4 5 5 5 4 3 4 4 4 4 5 4 4 3 3 1 3
2 2 3 2 1 2 3 4 7 6 7 5 3 3 1 4 6 10 14 14 12 13 13 12 13 9 8 6 4 3 3 6 8 10 9 9 10 10 10 12 12 11 10 10 9 9 9 10 9 9 9 9 10 10 10 10 10 9 9 8 6 6 6 6 6 6 6 6 6 6 7 5 4 4 4 5 4 4 4 4 5 4 4 4 4 4 4
1 1 3 1 1 2 4 8 8 9 6 2 0 3 1 6 9 11 14 16 14 10 7 10 12 11 10 6 3 2 1 4 7 8 9 9 9 9 9 9 10 10 9 10 10 9 10 8 7 8 9 9 10 10 10 9 10 9 8 6 5 5 5 6 6 6 6 6 6 6 6 7 8 7 5 5 5 5 4 3 4 4 3 4 5 5 4
1 2 2 1 1 1 4 7 12 10 4 3 4 2 5 2 8 11 12 16 17 18 15 9 8 3 11 13 12 8 2 2 6 8 8 9 9 10 10 10 10 9 9 9 10 9 7 7 7 8 8 9 10 9 9 10 10 8 6 5 5 5 6 7 7 7 6 6 7 7 6 5 6 6 7 5 4 5 5 4 4 4 4 4 6 7 7
1 2 1 2 3 2 5 9 9 6 3 3 0 4 2 6 8 7 11 14 15 16 15 6 5 7 9 12 10 8 6 5 3 5 7 8 9 8 8 8 9 10 10 11 11 10 8 8 8 8 8 9 9 9 9 10 9 6 6 6 6 6 7 7 7 7 7 7 6 6 6 6 7 7 6 5 5 6 6 6 6 6 5 5 6 6 5
1 1 0 0 2 2 4 13 3 5 4 4 4 7 7 2 5 6 5 10 12 12 11 9 12 11 11 12 12 14 10 8 7 6 5 5 7 8 8 8 8 9 9 10 10 9 8 8 7 7 9 9 9 9 9 8 6 6 6 6 7 7 7 8 8 8 7 8 6 5 6 7 7 6 5 5 5 6 6 7 7 7 5 4 5 6 6
2 1 1 2 3 5 6 7 4 4 3 5 6 4 6 2 3 6 4 3 6 6 9 14 14 14 14 12 11 9 10 9 7 7 8 6 5 6 7 7 8 10 10 10 10 9 8 7 7 7 8 8 8 9 8 5 6 6 7 7 7 7 7 7 7 7 7 7 6 6 6 5 6 6 6 6 6 6 6 6 5 5 5 4 5 5 5
2 2 2 3 3 5 4 2 2 4 6 4 5 4 5 4 2 3 5 5 4 4 7 10 14 15 13 14 13 12 11 10 10 9 7 7 7 6 6 8 6 6 9 11 10 10 8 9 7 7 7 8 9 8 5 4 5 6 6 7 7 7 7 7 6 6 7 7 7 7 6 7 7 6 7 6 6 6 6 6 5 5 5 5 5 5 5
1 1 2 4 2 4 6 2 2 3 5 4 3 3 2 2 2 2 5 6 7 8 8 11 7 8 9 8 9 5 7 10 9 8 6 6 6 7 7 6 6 7 10 10 10 10 9 8 7 6 6 6 8 6 4 4 5 6 6 7 7 7 6 6 6 5 6 7 8 8 7 7 7 6 7 6 6 6 6 6 6 5 5 5 5 5 4
1 1 2 2 3 5 5 6 1 2 5 5 5 4 3 3 2 3 6 8 8 10 9 9 11 11 12 11 8 9 5 6 11 10 8 7 7 8 8 7 8 6 8 8 8 9 8 6 6 6 6 5 5 3 3 4 5 6 6 6 6 6 6 6 6 6 6 5 5 6 7 6 6 6 6 5 6 5 5 5 5 5 4 4 4 4 4
2 2 2 1 1 2 3 4 5 6 7 7 7 5 4 3 3 4 7 10 10 10 8 9 10 8 5 5 6 5 5 4 3 7 9 9 7 6 7 6 5 5 5 8 9 8 7 5 5 6 6 5 5 4 5 5 6 6 6 6 6 6 7 6 6 6 6 7 6 5 5 6 5 5 5 5 5 5 5 5 5 4 4 4 4 4 3
1 1 2 2 3 1 5 6 7 5 5 4 7 7 8 7 6 5 5 5 10 10 10 10 10 9 8 9 9 9 9 8 5 4 6 7 7 7 8 7 6 6 6 7 7 8 6 4 5 6 6 6 6 6 5 5 5 6 6 7 6 6 6 6 6 5 5 5 5 5 5 4 5 5 6 5 4 4 5 5 5 4 4 3 4 4 2
5 3 1 2 2 1 3 6 6 7 7 5 7 7 8 8 6 5 6 7 8 13 15 15 14 13 11 9 10 11 8 7 7 3 1 3 6 5 5 5 5 7 8 9 8 8 5 4 5 5 6 5 5 5 5 5 5 5 5 5 5 5 4 4 4 4 4 4 5 5 5 5 4 3 6 4 4 4 4 6 4 3 3 3 4 4 3
1 3 1 0 1 3 2 2 3 4 5 7 9 9 7 7 6 5 4 5 5 6 7 10 13 13 14 17 13 10 10 11 10 11 12 9 6 4 5 6 7 8 8 9 9 8 7 6 7 7 6 5 4 5 5 5 5 6 5 4 4 4 4 4 5 4 4 3 3 4 4 4 4 4 3 4 6 2 1 4 3 2 3 4 4 4 4
2 1 2 3 1 1 2 1 2 4 4 4 5 5 6 6 6 5 6 3 1 1 2 2 2 5 9 12 14 13 12 10 9 9 8 6 8 8 7 8 9 9 9 9 9 9 7 7 7 7 7 5 5 5 4 5 5 6 6 4 4 4 4 3 4 4 3 4 4 4 4 4 4 4 3 4 1 4 2 2 4 3 2 2 2 1 3
2 2 2 3 1 2 1 1 2 4 4 4 4 5 5 5 4 5 4 4 5 4 5 5 1 0 4 7 8 11 13 13 11 11 10 7 8 9 10 10 11 10 9 8 8 8 7 8 7 7 6 5 4 5 4 4 5 5 5 5 4 4 3 3 3 3 3 3 3 4 4 4 4 4 4 4 4 4 1 4 3 0 2 3 4 4 2
1 3 3 3 2 2 2 2 2 4 5 5 4 3 4 4 6 5 5 4 3 3 5 6 5 3 2 5 5 3 5 9 11 10 9 8 8 9 10 12 10 9 8 8 8 8 9 9 8 7 6 5 5 4 4 4 4 5 5 5 4 3 3 3 2 2 2 2 3 3 3 4 4 4 4 4 4 5 5 5 1 3 6 5 6 7 7
2 2 4 4 4 3 2 1 1 2 3 2 2 3 4 4 3 1 2 4 3 2 1 2 5 6 6 5 5 3 4 4 7 8 9 10 11 10 9 8 9 10 9 9 8 8 9 8 7 6 6 5 4 3 3 4 4 4 4 4 3 4 5 3 2 2 2 3 3 3 3 3 4 4 4 4 4 4 5 5 5 6 5 3 3 6 5
2 2 2 4 3 2 2 2 2 1 1 2 2 3 3 3 3 5 4 2 1 2 1 2 1 4 5 6 8 6 4 6 9 9 9 11 9 7 7 9 10 10 9 9 8 9 8 7 7 7 6 4 3 3 3 3 4 4 3 3 2 2 2 2 2 3 3 3 4 4 4 4 4 4 4 4 4 4 4 4 5 6 5 5 5 5 3
2 2 1 1 2 3 2 1 2 2 2 1 1 1 1 2 3 3 3 5 5 4 1 2 3 1 2 3 5 7 6 6 7 8 8 6 6 7 7 9 9 10 9 9 9 9 8 7 7 7 5 4 3 3 3 3 3 3 2 2 2 2 2 3 3 3 3 3 3 4 4 4 4 4 3 3 3 3 3 4 5 5 5 6 6 5 3
3 2 2 2 2 3 3 2 1 2 2 2 2 2 2 2 1 1 2 3 4 5 6 5 3 1 4 5 5 5 6 7 7 6 3 2 3 5 8 8 9 8 9 9 9 9 8 8 7 7 6 5 4 4 4 3 3 3 2 1 2 2 3 3 4 4 3 3 3 4 3 3 3 3 3 3 3 4 4 4 5 5 5 5 5 6 7
3 3 2 3 3 2 2 2 1 1 1 1 2 2 1 1 2 2 2 1 2 3 5 5 4 4 4 5 7 9 9 10 11 10 8 7 6 7 8 10 11 10 9 10 10 11 9 8 7 6 5 5 5 4 4 3 2 1 0 1 1 1 2 4 4 4 4 4 4 3 3 3 3 3 3 3 3 3 3 4 4 5 5 5 5 5 5
6 4 3 3 3 3 3 1 2 1 1 0 2 3 4 3 4 5 4 4 3 3 4 5 6 6 5 4 5 6 6 6 7 7 8 10 10 10 9 10 9 9 9 10 11 11 9 8 7 6 6 5 5 4 3 3 2 1 1 1 2 3 3 4 5 4 4 4 4 3 3 4 3 3 3 3 4 3 4 4 4 5 5 5 5 5 5
6 4 4 4 3 3 3 3 3 3 3 3 3 2 3 3 4 4 5 5 5 4 4 5 5 5 6 5 4 5 5 5 5 6 8 8 9 9 10 7 7 8 8 9 10 9 9 8 8 7 6 5 5 4 3 3 1 0 0 2 3 3 4 4 4 5 3 3 2 2 3 3 3 3 3 3 3 3 3 4 4 5 5 5 5 6 6
8 6 4 5 5 4 4 4 3 4 4 4 4 4 4 5 4 5 5 5 5 6 6 5 5 4 4 5 6 5 5 6 6 8 9 10 10 9 7 7 7 8 9 9 9 8 7 7 8 7 6 5 4 3 3 2 1 1 2 3 4 4 3 4 3 3 2 2 2 2 2 2 1 2 2 3 3 3 4 4 4 5 5 6 6 6 7
2 1 1 2 2 3 4 5 5 5 5 6 5 5 5 5 5 6 6 5 6 6 6 5 4 4 5 6 6 6 7 9 8 9 9 10 11 11 9 9 10 10 9 8 7 8 8 8 7 7 6 5 3 2 1 1 1 2 3 3 4 4 3 3 2 2 2 2 2 1 2 2 2 2 3 3 3 3 3 4 4 5 5 6 6 6 6
3 3 3 3 4 4 5 6 6 7 7 7 7 8 7 7 7 6 7 8 6 5 5 5 5 4 5 6 7 8 9 8 6 8 10 12 13 12 11 12 11 11 10 9 7 8 8 7 8 8 5 4 3 2 1 1 0 2 3 4 4 3 2 2 2 2 2 2 2 2 2 3 3 4 4 4 3 4 4 4 4 4 5 5 5 6 6
1 2 2 3 3 3 5 5 5 6 6 7 8 8 8 9 9 9 8 7 5 5 5 4 4 5 6 6 6 6 6 6 7 9 11 12 11 10 10 11 11 11 10 9 8 8 8 7 9 8 5 3 3 1 2 4 1 1 2 2 2 2 2 1 1 1 1 1 2 2 2 2 3 3 3 3 3 3 4 4 4 4 5 5 6 6 6
1 2 3 4 4 5 6 6 6 6 7 8 9 9 9 9 8 8 7 6 6 5 4 4 5 5 5 5 5 6 6 7 9 11 12 14 13 11 10 10 9 9 8 9 10 8 7 9 10 6 4 3 2 2 5 8 4 1 1 1 1 1 1 1 1 1 1 1 2 2 2 2 3 3 3 3 3 3 3 4 4 4 5 5 5 6 6
3 2 3 4 5 6 7 7 6 7 7 9 9 9 8 9 10 9 7 6 4 3 4 4 5 5 6 7 7 7 8 9 10 12 13 14 10 10 10 8 6 6 8 10 9 8 8 7 5 5 4 4 4 3 4 6 5 2 2 1 1 1 1 1 1 1 2 2 2 3 2 3 3 3 2 3 3 3 3 4 5 5 5 5 5 5 5
4 4 5 5 6 6 7 7 7 8 8 8 8 9 8 9 8 8 7 6 5 5 5 5 6 6 7 8 8 8 9 11 11 12 13 11 10 9 8 7 7 9 10 11 8 7 8 10 6 5 4 3 2 2 3 4 3 2 2 2 1 1 2 2 2 1 2 2 2 2 2 2 2 3 3 3 3 4 4 4 4 4 4 5 4 5 5
5 6 7 7 8 8 9 9 9 8 7 7 7 8 8 8 8 8 7 6 4 5 6 7 7 8 9 9 10 10 10 10 11 11 10 9 8 7 8 8 7 8 8 7 7 8 8 6 5 5 5 4 4 3 2 3 1 2 2 2 2 2 2 2 2 2 2 2 2 2 2 2 2 2 3 3 3 4 4 4 4 4 4 4 4 5 5
5 6 7 8 8 8 8 8 8 8 8 7 8 8 8 8 8 8 6 4 5 6 7 8 8 7 8 8 10 11 11 10 9 8 8 9 8 8 9 7 6 6 10 10 9 8 6 6 5 4 4 3 4 5 4 2 2 2 2 2 2 2 2 2 2 2 2 2 2 2 2 2 2 2 3 3 3 3 4 4 4 4 4 4 4 5 5
7 8 8 8 8 8 9 8 8 9 9 8 8 7 7 6 6 7 6 6 6 6 7 7 7 7 8 10 11 11 11 10 10 9 8 7 6 6 8 9 5 6 11 7 6 5 5 4 5 4 5 4 4 7 4 2 2 2 2 2 2 2 2 2 2 2 2 2 2 2 2 2 2 2 3 3 3 3 4 4 4 4 4 4 5 5 5
8 7 7 8 8 8 8 8 8 8 9 9 8 8 7 6 6 7 6 6 7 8 8 9 9 8 9 11 11 10 10 8 7 7 7 7 6 6 8 8 7 9 11 6 5 5 5 4 3 6 9 8 7 4 2 2 2 3 2 2 2 2 2 2 2 2 2 2 2 2 2 2 2 2 3 3 3 3 3 4 4 4 5 5 5 5 5
6 7 7 7 8 7 7 7 8 8 8 7 6 5 4 3 2 2 3 6 7 8 9 8 8 8 8 8 7 7 5 5 6 7 9 8 8 7 8 10 9 8 7 7 5 4 4 4 6 7 6 7 6 4 2 3 3 3 3 2 2 2 2 2 2 2 2 2 2 2 2 2 2 2 2 2 3 3 3 4 4 4 5 5 5 5 5
6 6 6 6 6 6 6 7 7 6 6 5 3 2 1 2 4 4 5 5 6 5 5 5 7 7 8 8 8 8 7 5 5 3 3 5 8 9 10 9 7 7 10 9 5 5 5 7 8 7 7 7 6 3 3 3 3 3 2 2 2 2 2 2 2 2 2 2 2 2 2 2 3 3 2 3 4 4 3 4 4 4 4 5 5 5 6
5 5 5 5 5 5 6 5 4 4 3 2 1 0 1 3 5 5 6 5 6 7 8 6 4 8 9 11 10 9 9 8 5 4 4 5 8 9 10 10 9 12 10 6 5 5 5 7 7 7 8 7 4 2 3 3 3 3 3 2 2 2 2 2 2 2 2 2 2 2 2 3 3 3 3 4 4 4 4 4 4 4 5 5 5 6 6
4 4 4 4 4 4 3 3 3 2 2 3 3 3 3 5 7 8 9 6 6 7 8 6 4 5 6 7 8 8 8 8 7 3 3 7 8 8 8 7 8 10 8 7 6 6 7 7 8 7 7 6 3 3 3 3 3 2 2 2 2 2 1 1 1 2 2 2 2 2 2 2 3 4 4 4 4 3 4 4 4 4 5 5 5 6 6
3 4 4 4 4 4 4 4 4 4 3 4 4 5 5 6 7 8 8 8 8 7 7 6 5 5 4 5 6 7 6 5 6 7 5 6 7 8 8 8 11 11 7 6 6 5 8 8 8 7 7 4 2 3 3 3 3 3 2 2 2 2 1 1 1 1 1 2 2 2 3 3 3 3 4 4 4 3 4 4 4 4 5 6 5 6 5
3 3 4 5 5 5 5 5 5 4 4 4 5 6 7 7 7 6 5 5 6 7 6 5 4 4 4 4 3 3 4 3 4 6 6 7 8 8 8 8 8 10 8 6 7 6 8 10 8 8 5 3 2 2 2 2 3 2 2 2 1 1 1 1 1 1 1 2 2 3 3 3 3 3 4 4 4 4 4 4 4 4 6 6 5 6 6
2 3 3 3 4 5 5 5 4 4 4 4 5 5 6 7 7 6 4 5 6 7 7 6 5 5 5 5 4 2 2 2 4 7 6 6 7 8 9 8 8 8 7 6 6 5 6 6 5 6 5 3 2 2 1 2 1 2 1 1 1 1 1 0 1 1 2 2 3 3 3 3 3 3 3 4 4 4 4 4 5 5 5 5 5 5 5
1 1 1 1 2 3 4 4 4 4 5 5 6 6 6 6 6 6 5 6 6 6 7 7 7 4 4 5 5 5 6 6 6 7 6 7 7 7 8 8 7 7 7 6 5 5 5 5 5 5 4 3 2 2 2 3 1 0 1 1 0 0 1 1 2 2 2 2 2 3 3 2 2 3 3 3 4 4 4 5 5 5 5 5 5 5 5
Wind_Direction
334 140 184 241 358 55 72 31 20 18 5 20 8 332 351 310 240 260 155 172 183 173 178 167 165 164 147 139 135 132 131 128 122 120 113 105 96 87 90 93 97 103 109 125 147 168 175 171 167 166 160 151 143 167 171 170 163 164 169 182 184 187 179 215 231 206 189 184 203 216 209 205 211 216 215 211 204 210 213 222 226 227 229 235 236 235 233
8 12 292 223 272 167 86 27 22 25 22 38 23 18 10 343 321 321 176 165 119 145 161 157 153 152 144 137 126 126 133 133 127 116 105 101 97 93 91 89 87 84 80 78 81 84 88 102 114 121 129 138 141 158 171 188 192 178 177 186 188 199 191 194 203 212 205 177 158 176 186 189 178 168 179 194 200 203 206 211 212 214 225 230 237 238 238
235 337 327 221 238 305 325 21 23 22 22 41 35 14 6 347 335 335 158 139 129 119 140 135 141 137 134 136 140 136 131 135 131 114 106 101 96 91 88 85 84 84 79 76 76 76 79 83 89 94 99 107 115 120 145 186 197 171 174 182 195 199 205 201 198 193 193 202 177 179 182 160 120 134 142 164 175 180 190 196 201 192 210 217 222 227 231
215 49 344 308 295 295 299 19 32 21 18 19 15 20 4 348 339 164 152 150 155 140 140 137 138 143 144 143 140 135 140 144 129 112 106 106 104 96 88 84 82 77 71 65 64 64 63 56 60 72 80 84 87 86 95 115 141 164 184 195 206 208 200 206 207 204 199 189 190 197 184 160 136 140 156 172 193 195 198 189 184 204 213 214 215 219 223
193 23 10 340 344 346 279 218 89 66 77 31 123 55 18 25 325 215 198 294 139 150 146 139 142 145 145 143 145 139 143 142 127 116 110 109 106 100 93 88 84 80 78 73 68 66 59 54 55 49 59 67 66 66 64 64 78 85 84 81 74 69 220 215 204 198 201 197 195 192 182 167 179 206 186 185 196 202 204 199 195 205 214 217 218 221 221
141 28 359 310 117 223 253 82 187 112 91 71 52 36 18 44 349 15 338 32 134 143 141 136 143 143 145 132 109 137 141 133 125 123 121 115 111 105 101 96 85 80 87 84 81 79 78 74 70 64 62 62 63 60 58 48 60 70 70 69 71 67 65 62 80 204 210 214 204 186 173 166 180 209 214 224 223 212 201 196 204 216 224 227 225 222 229
144 40 188 171 201 215 69 171 170 116 115 101 93 93 21 8 6 189 178 140 150 146 143 137 128 105 85 78 86 102 123 127 125 126 121 120 116 109 105 100 96 88 87 90 86 80 78 77 72 76 69 68 70 67 63 62 52 54 58 61 57 59 62 59 65 67 64 64 129 182 186 169 173 215 214 211 217 216 212 215 221 223 229 233 234 235 235
84 175 146 207 214 359 325 62 220 343 45 109 151 161 84 32 8 286 170 146 138 118 107 101 105 105 93 69 45 41 48 60 122 124 124 123 116 107 102 105 102 95 83 82 87 86 86 78 71 72 73 73 75 70 67 64 59 53 51 55 54 50 49 44 50 49 54 57 56 56 88 121 132 134 187 215 199 180 179 195 207 212 221 230 233 232 232
250 308 201 268 43 91 113 123 16 349 344 355 40 350 52 16 286 132 122 122 114 107 110 113 111 108 97 79 46 24 55 78 91 104 98 103 105 109 109 106 105 102 97 90 86 87 83 79 76 73 73 76 77 74 66 59 61 57 52 50 41 35 39 36 39 41 40 35 39 56 69 84 91 98 86 67 101 154 142 144 159 169 191 194 198 230 236
307 247 208 223 207 190 121 47 342 324 316 309 280 277 129 195 174 144 126 116 118 120 124 125 123 116 104 95 65 32 40 89 102 102 105 105 107 109 110 108 105 98 93 90 82 87 86 80 74 73 66 70 74 74 71 68 66 60 55 52 45 39 35 35 37 42 35 36 38 24 25 55 81 92 83 75 43 34 80 108 119 124 143 156 153 189 237
186 201 225 203 219 71 61 320 331 326 328 298 267 266 307 163 171 150 133 131 139 141 140 138 139 135 128 123 104 49 55 104 104 105 100 103 106 110 113 114 108 101 96 95 93 84 82 79 70 70 69 70 76 74 71 71 71 69 62 54 44 50 48 40 37 28 37 39 37 41 46 37 28 36 62 65 49 49 53 62 76 76 80 89 84 70 59
56 108 213 182 255 43 8 325 317 326 328 351 257 286 289 162 176 157 146 141 142 134 147 159 158 152 138 132 117 42 55 128 123 118 116 107 100 97 100 96 99 102 104 98 89 84 79 76 76 79 79 78 77 77 74 73 72 68 61 56 47 53 56 52 44 40 42 39 41 45 58 59 46 30 18 44 57 64 48 37 70 75 72 68 77 81 78
84 276 118 91 136 53 334 324 319 319 299 223 229 247 38 11 186 170 158 152 151 151 162 194 155 135 146 160 162 158 143 139 126 127 125 123 122 122 119 115 111 100 93 91 90 87 83 86 88 86 88 84 79 77 78 75 72 71 68 63 55 47 50 52 50 47 40 32 37 39 27 31 56 50 37 42 47 64 82 85 94 79 69 79 84 77 76
12 10 318 56 43 57 323 312 319 303 268 229 262 26 188 241 219 187 168 161 163 164 166 151 144 140 130 136 132 129 159 154 129 123 126 121 117 110 108 114 111 107 104 100 98 93 92 97 95 94 91 88 86 83 79 74 73 73 71 69 65 57 53 50 48 44 40 30 28 25 23 28 44 48 35 31 50 60 64 75 75 72 65 74 87 85 78
193 234 91 110 133 98 47 324 298 11 352 23 330 315 319 260 216 201 181 172 169 172 154 133 133 135 144 142 148 153 160 152 141 130 124 117 120 118 115 107 105 107 98 89 84 83 81 78 78 86 89 86 85 83 80 77 78 75 70 68 68 67 60 54 50 48 44 38 33 27 27 30 45 52 47 41 37 42 51 63 65 57 38 41 57 64 66
345 85 31 50 17 324 4 348 21 3 354 326 317 307 313 0 182 179 182 120 149 162 147 141 150 153 151 143 147 146 150 149 139 138 131 118 100 97 85 83 92 97 97 94 88 78 71 67 68 71 79 82 80 78 73 67 79 82 82 76 73 69 67 61 56 50 46 46 42 34 29 31 42 44 40 40 39 35 36 47 55 59 48 37 52 56 55
289 3 24 37 337 312 333 303 312 314 322 314 296 267 279 287 166 126 152 139 107 132 142 146 147 154 161 164 158 153 156 146 145 141 143 130 128 115 107 100 82 85 99 98 96 89 80 76 69 68 74 84 83 76 64 64 74 81 80 77 75 73 67 63 62 61 53 45 41 36 30 28 31 29 32 32 39 29 36 40 40 48 43 39 41 44 47
249 228 299 312 300 336 341 351 259 318 343 356 338 343 335 8 24 179 154 120 119 109 117 122 140 141 148 144 140 139 150 143 142 138 129 123 125 123 119 107 103 99 103 101 100 96 88 84 81 72 71 78 85 82 76 68 71 72 75 76 73 69 70 64 55 58 63 58 48 40 35 34 34 31 27 27 32 29 33 36 35 35 30 33 36 36 44
276 183 77 23 11 344 358 347 54 179 8 5 358 21 22 355 358 99 109 118 117 108 117 131 140 145 150 155 150 140 157 156 149 148 146 146 151 142 134 136 136 132 115 111 109 101 96 85 81 80 73 73 74 72 72 83 82 73 69 68 67 65 62 63 62 55 53 49 53 50 39 37 36 31 26 27 30 30 29 27 30 29 28 31 30 32 31
268 2 48 77 335 347 346 354 5 20 15 26 31 27 27 37 46 64 109 118 118 121 121 130 122 117 117 104 95 119 122 138 167 151 150 150 147 137 132 131 114 103 111 119 113 109 97 84 79 79 77 73 68 60 64 64 73 76 71 62 60 53 52 53 54 49 51 47 43 47 47 42 40 37 33 27 38 37 27 21 12 18 20 23 25 20 19
21 237 202 208 259 341 45 35 30 15 1 9 42 34 39 50 68 83 80 106 131 125 106 85 86 116 157 161 173 165 161 163 172 171 154 156 152 152 144 133 128 132 125 111 105 102 102 92 88 83 77 70 63 61 55 62 68 74 74 72 68 61 51 46 43 41 41 38 32 31 37 43 55 46 30 36 34 43 52 29 10 1 353 6 17 13 359
248 273 70 180 263 146 60 38 21 12 0 354 52 51 48 43 53 66 102 106 120 133 142 157 163 179 174 168 164 159 159 152 146 119 308 151 154 149 129 132 147 138 128 125 124 121 121 115 98 87 76 64 57 58 57 57 63 70 69 67 65 58 52 49 42 37 33 35 31 17 19 21 20 56 104 92 23 23 44 39 69 356 311 354 352 339 335
272 80 111 128 85 101 73 49 23 26 14 25 41 40 45 59 70 70 81 110 130 164 166 171 182 177 175 177 174 167 161 171 173 163 176 178 164 169 157 160 161 144 137 133 133 135 137 131 116 106 94 80 69 59 56 58 64 68 66 65 55 54 45 41 30 18 19 24 25 22 14 9 9 3 354 130 147 142 326 326 15 104 193 252 284 287 303
77 144 120 163 337 50 110 68 18 24 12 8 44 43 38 42 49 80 94 82 115 200 223 182 179 191 186 177 174 172 171 166 166 171 186 183 163 167 175 178 159 150 144 148 147 142 138 130 120 116 113 108 99 92 80 75 72 72 67 66 62 49 45 36 30 12 13 8 2 0 1 2 358 352 348 346 19 157 164 22 356 31 89 111 129 186 262
96 108 149 176 122 104 71 44 35 25 24 18 38 30 15 2 8 10 39 98 118 157 189 211 213 321 200 182 186 176 174 177 176 165 167 172 171 174 181 173 165 156 158 157 145 141 137 131 127 123 119 112 108 101 96 91 87 85 78 75 70 60 51 33 23 14 1 2 354 356 349 345 343 343 344 345 342 350 159 176 180 164 92 108 86 69 37
173 135 131 130 137 104 126 138 101 37 23 12 16 24 22 16 360 348 353 1 19 110 147 181 194 177 203 195 199 208 181 173 172 164 165 173 176 183 182 174 164 158 158 149 143 143 140 138 132 130 123 120 116 110 103 92 82 79 74 67 59 48 46 39 19 4 355 359 349 352 346 337 335 329 334 334 334 331 330 346 353 181 177 127 49 23 33
178 165 158 175 193 150 157 271 96 49 14 21 13 357 353 352 3 25 327 319 331 345 38 150 178 166 167 180 193 196 198 170 167 179 185 183 185 187 176 162 159 159 156 148 147 146 141 139 137 129 119 111 106 106 96 90 84 79 73 64 66 67 53 23 6 357 352 347 347 344 342 335 331 327 328 326 322 322 335 335 332 334 343 359 61 62 14
142 163 231 240 252 224 140 105 94 123 108 29 13 9 4 346 355 356 355 10 332 328 14 56 96 168 174 171 170 176 184 190 195 196 193 195 187 166 159 158 157 159 155 151 149 150 147 141 135 128 120 115 107 101 93 87 81 77 70 61 42 22 16 11 352 344 339 342 337 332 335 331 327 322 322 319 318 324 333 335 327 326 323 332 331 346 346
150 126 102 47 68 84 81 129 157 133 124 120 189 145 357 341 358 339 336 332 333 329 332 136 143 143 236 171 182 174 173 183 214 216 211 201 173 158 158 156 158 157 154 154 154 162 151 138 136 131 126 118 108 100 94 87 82 71 61 36 8 9 351 348 336 332 336 328 323 329 325 320 321 318 319 318 321 330 328 320 324 322 323 323 324 321 324
153 152 146 127 123 144 159 140 93 44 32 22 25 60 65 10 346 326 315 329 335 324 324 343 339 180 173 170 185 166 162 184 198 206 207 176 164 166 163 156 151 152 153 160 165 164 151 144 142 137 134 134 125 118 111 103 96 95 85 53 12 351 338 343 328 323 319 314 322 307 303 313 315 315 310 319 328 330 316 314 315 315 313 321 327 320 327
143 136 144 137 145 145 174 145 119 91 4 8 350 343 48 17 333 308 310 307 297 298 312 317 307 289 245 222 191 196 203 195 185 186 173 162 175 184 178 167 166 168 168 168 166 164 150 146 141 135 128 130 126 124 119 111 105 102 91 354 349 53 356 348 320 317 313 312 310 308 310 303 308 309 311 314 321 311 306 311 315 316 317 314 315 318 320
153 154 151 165 171 177 156 166 179 204 173 275 313 331 347 337 322 319 314 307 301 291 289 284 283 281 272 252 241 215 209 205 197 184 164 162 167 182 186 182 173 162 153 153 162 161 151 143 141 132 129 127 128 128 126 118 125 103 27 316 313 312 348 338 309 317 310 303 297 297 297 296 291 294 300 313 306 300 306 309 311 312 314 315 313 317 324
172 181 194 180 179 194 207 195 223 235 230 243 249 265 269 264 269 274 285 287 291 283 269 265 263 268 277 281 261 235 217 192 172 152 156 163 169 172 179 173 152 136 141 150 155 151 148 145 139 135 132 132 130 125 121 117 116 106 263 307 317 327 324 324 327 309 300 302 306 316 308 301 298 289 286 289 295 306 312 316 317 319 316 319 319 317 322
196 209 214 184 200 219 243 252 219 243 246 236 246 251 252 248 246 259 266 271 275 276 274 275 274 266 259 247 241 227 194 177 176 182 176 166 163 165 152 125 119 117 132 144 141 148 151 129 129 129 130 127 125 119 113 120 93 296 306 307 317 322 319 318 322 318 324 339 348 352 330 327 322 314 310 302 309 312 332 327 319 316 312 308 308 310 316
230 236 231 227 227 248 254 258 265 261 264 272 262 244 234 241 242 246 248 256 258 259 272 283 274 255 238 231 225 214 201 204 196 174 162 154 154 156 135 119 115 114 114 120 133 145 134 126 129 126 124 121 117 119 110 3 326 321 326 317 315 313 318 321 321 320 321 337 324 313 325 327 333 326 332 329 327 338 326 316 314 313 308 310 306 316 344
210 229 234 240 242 245 251 255 257 262 266 264 265 270 268 261 255 249 248 252 254 256 255 255 257 248 234 215 212 210 208 207 181 154 155 162 159 149 141 139 134 128 124 129 130 134 131 132 131 128 129 120 121 106 25 104 43 330 318 313 309 305 311 311 309 309 317 329 321 352 352 3 357 348 345 333 323 313 308 309 309 308 309 310 334 345 336
180 225 259 265 267 260 260 256 257 260 259 259 263 264 262 260 256 255 258 262 253 247 244 236 230 226 224 218 209 203 199 189 167 163 169 163 157 147 140 133 135 135 134 134 141 145 144 138 129 120 117 107 95 29 50 105 119 326 303 288 289 292 285 277 331 327 359 340 338 344 351 356 352 347 341 335 327 322 314 310 315 314 316 321 329 327 329
205 254 272 274 278 275 268 265 267 266 263 265 260 258 259 263 265 261 251 249 258 248 232 225 226 234 225 203 185 177 172 167 162 167 168 161 160 143 138 138 141 143 139 142 144 143 140 132 123 117 112 107 91 83 68 61 45 0 328 323 305 270 292 321 0 347 332 353 359 355 3 2 349 333 340 338 333 330 335 339 336 333 335 332 325 321 319
280 254 253 257 262 263 266 267 260 253 249 255 259 259 257 258 263 265 260 254 246 228 219 213 202 205 193 190 191 190 184 179 171 164 157 155 147 136 143 138 124 115 124 139 139 137 135 132 125 118 109 106 100 88 66 60 49 46 49 16 29 6 40 15 12 5 14 359 1 12 4 358 354 349 341 343 343 353 354 349 340 331 327 322 317 320 325
292 291 292 290 279 274 272 267 264 261 258 251 254 258 258 261 258 253 250 241 223 212 208 189 192 203 194 189 179 170 164 159 156 154 149 141 122 104 93 74 83 106 120 125 123 122 121 119 120 125 126 122 112 94 79 62 48 48 54 65 58 58 50 43 31 28 25 13 19 12 16 12 6 350 349 355 355 351 341 336 330 326 321 318 319 326 333
297 298 295 290 285 283 277 273 270 267 265 260 252 252 257 259 260 254 241 230 208 201 207 196 197 202 196 188 175 161 153 148 144 139 128 109 110 118 116 120 121 119 122 119 118 121 126 131 135 132 129 129 121 115 93 94 77 71 59 61 45 61 66 63 54 42 36 34 27 23 20 11 11 8 4 358 347 344 340 336 335 333 328 327 331 337 335
298 297 297 293 289 285 282 280 279 276 269 260 253 254 258 259 257 253 236 200 196 194 204 207 198 191 185 165 154 147 145 138 122 117 124 131 131 125 121 127 133 128 131 129 131 133 134 130 123 113 114 108 112 112 106 112 74 69 73 83 80 77 69 67 54 48 49 44 49 36 34 24 22 8 9 5 354 348 342 342 337 332 331 336 337 337 331
324 318 311 304 299 293 289 283 277 274 275 276 274 272 269 265 250 242 228 202 188 187 197 198 178 145 143 149 148 145 141 138 129 115 93 71 75 100 127 138 138 143 145 135 134 129 132 131 132 130 109 107 115 130 149 120 109 101 83 89 88 82 72 62 61 55 44 49 58 51 40 34 28 20 9 0 350 344 341 344 337 334 333 338 334 331 330
326 316 309 303 297 294 292 288 285 282 277 278 285 289 283 271 258 237 208 194 192 189 182 177 166 148 140 152 150 144 142 131 121 116 108 106 90 95 118 133 152 150 147 144 141 135 133 140 122 108 117 121 130 150 120 97 106 103 96 90 89 91 71 79 68 56 48 39 48 43 35 26 25 18 1 353 349 347 345 340 334 335 340 336 332 333 333
324 321 319 311 301 296 293 292 293 290 292 298 302 302 293 276 267 254 213 191 185 187 179 161 147 142 146 141 131 137 125 120 132 139 137 139 141 142 147 153 150 150 146 136 129 130 129 131 122 131 129 132 136 149 117 92 95 101 89 89 90 72 68 69 64 57 48 35 43 36 30 27 23 15 14 9 2 352 350 347 348 346 341 337 338 337 335
326 326 320 317 318 317 312 305 301 297 286 279 285 297 277 211 161 184 205 193 172 133 110 123 134 134 120 100 98 104 89 96 89 67 107 142 144 146 153 151 150 149 146 151 143 143 137 131 134 138 133 140 147 151 102 87 87 100 96 89 73 70 64 60 63 50 29 24 29 33 45 44 36 27 19 14 6 359 357 360 351 350 349 345 340 339 336
340 336 331 327 324 321 321 308 298 288 281 270 215 250 111 137 137 120 92 96 107 109 102 80 95 117 129 138 138 135 143 139 128 125 120 112 117 128 145 147 141 144 154 156 146 150 145 146 141 142 141 139 153 111 95 88 82 80 91 81 80 67 67 71 75 54 40 45 45 57 57 42 27 20 15 8 2 359 352 353 355 352 349 346 341 342 340
359 359 0 347 339 340 314 300 321 347 25 30 69 102 123 133 128 124 131 131 107 97 95 92 83 107 128 132 140 142 144 139 129 122 153 141 136 138 148 156 154 155 153 141 142 149 142 134 139 144 147 155 151 93 93 84 85 82 83 89 87 78 68 71 76 48 49 54 55 54 46 29 16 12 3 360 358 350 344 347 344 348 349 347 348 346 344
11 9 3 6 8 10 20 26 31 43 59 78 101 121 134 130 133 134 130 118 109 97 96 108 108 94 94 115 130 135 139 145 150 154 166 150 143 146 142 144 150 155 158 151 151 152 156 161 160 159 155 164 135 96 87 83 76 76 82 68 66 68 72 95 79 67 43 43 38 34 16 3 360 353 351 355 349 343 344 344 342 346 352 345 344 345 343
34 28 28 23 22 27 30 48 58 58 69 95 122 137 138 131 128 126 118 110 116 119 113 112 114 107 92 77 67 99 126 117 110 130 142 147 150 147 148 154 155 163 164 151 154 152 155 169 175 178 180 173 156 122 92 86 81 75 64 76 74 97 83 56 79 63 20 3 355 349 350 345 345 343 343 344 345 343 338 336 339 348 343 333 342 341 342
40 45 39 34 25 30 40 47 57 80 101 113 132 140 138 130 127 129 117 121 132 129 124 124 121 123 123 119 119 110 100 105 128 142 144 152 152 155 160 158 158 162 167 166 162 158 154 169 168 176 185 190 178 157 115 114 97 88 84 75 84 34 83 128 338 358 3 349 349 347 341 336 332 328 333 340 336 335 335 335 336 336 334 336 331 325 326
111 89 117 96 69 52 45 56 69 89 106 121 127 128 124 118 119 125 136 138 137 139 138 144 150 162 166 161 159 157 173 171 167 160 157 160 166 165 169 170 162 163 168 171 170 174 174 168 174 183 189 193 192 182 164 193 206 80 90 89 340 103 51 8 348 337 327 329 335 341 340 338 330 326 332 333 327 325 323 320 317 319 320 322 322 319 318